Wind_Speed
11 14 11 10 10 9 9 5 4 4 4 4 5 6 7 9 11 13 12 11 11 10 12 23 23 21 18 18 18 19 18 15 14
15 15 15 12 10 10 10 8 5 4 4 5 6 6 8 7 7 9 10 10 7 5 7 10 12 14 15 17 19 18 16 15 16
17 15 16 16 13 13 12 7 2 2 4 4 5 8 8 8 7 7 8 10 12 13 14 14 13 13 14 13 15 15 16 16 16
18 15 17 18 17 13 10 10 4 2 3 6 6 6 9 11 10 10 9 9 10 11 14 16 17 17 17 17 17 17 18 19 19
21 20 19 17 17 17 11 12 8 4 3 6 9 9 9 9 9 8 8 11 12 10 11 13 16 17 18 19 19 19 20 21 21
26 24 23 19 16 16 14 13 12 9 8 6 7 10 10 11 12 11 10 9 11 13 11 10 12 14 16 17 17 17 18 18 19
28 28 28 26 20 18 15 16 14 15 7 5 4 8 10 11 11 12 12 11 12 11 12 12 11 12 13 13 13 15 17 18 19
33 33 31 28 26 25 17 17 18 17 14 10 9 8 10 11 11 13 13 12 12 13 13 13 12 12 13 14 15 16 17 18 18
36 37 36 31 29 29 27 23 19 20 20 16 16 15 15 15 15 16 14 13 13 15 15 16 15 15 15 16 17 18 19 20 20
38 38 37 38 33 33 32 31 28 29 27 25 19 22 20 19 18 17 18 18 16 16 16 16 17 18 19 19 21 21 21 21 19
39 36 39 41 39 36 35 37 35 33 32 28 30 26 28 28 26 22 18 18 20 21 18 17 19 19 19 20 21 23 23 23 23
47 46 42 41 43 42 41 42 40 39 36 33 30 32 32 32 32 30 27 24 23 22 24 23 22 23 23 22 24 25 25 25 25
51 52 50 51 46 46 46 46 44 41 37 35 37 34 32 34 35 35 34 31 27 27 26 28 27 26 25 26 26 26 27 26 25
53 57 57 56 53 52 51 51 48 46 44 40 38 38 37 36 34 35 37 38 36 33 31 33 33 31 30 30 29 28 27 27 28
57 61 62 60 62 61 60 57 55 52 50 48 45 45 42 40 39 43 43 43 44 39 39 39 42 43 37 34 30 31 31 33 32
54 58 58 59 64 65 67 63 64 61 58 56 53 53 51 48 45 43 45 46 44 46 28 42 42 44 49 40 34 32 33 34 34
52 50 54 56 57 54 65 72 68 70 67 64 59 60 58 54 51 49 47 42 40 41 47 42 49 45 64 42 38 39 36 33 30
49 51 48 56 54 56 56 60 56 65 74 70 65 62 65 64 56 49 52 44 42 41 43 43 46 53 51 48 33 31 35 27 18
50 48 51 54 49 48 56 48 50 52 60 59 64 63 66 58 51 49 52 46 46 47 48 44 47 45 38 27 24 24 26 21 23
46 49 50 49 49 46 49 52 51 47 48 58 52 60 60 57 49 51 55 49 47 46 46 45 42 37 35 32 31 30 29 26 24
Wind_Direction
269 280 290 305 325 332 323 281 272 257 242 238 235 235 232 235 237 244 239 235 277 238 242 205 208 213 231 238 243 247 249 252 257
264 271 277 284 309 309 307 294 255 242 260 254 244 241 236 237 242 247 242 225 228 232 212 204 206 209 232 245 246 240 238 244 249
256 262 272 285 295 298 287 274 278 262 231 242 262 250 241 234 239 245 246 233 227 220 220 215 221 229 236 241 237 235 246 247 248
257 250 268 283 291 290 271 257 181 35 334 259 245 253 245 241 243 244 243 242 239 237 238 238 238 241 239 239 239 242 251 251 245
249 254 267 279 281 280 270 242 232 278 311 255 248 240 241 240 243 241 236 233 239 241 235 240 246 246 242 242 244 244 245 246 247
251 250 255 266 274 269 279 251 259 278 301 260 247 238 239 241 243 249 254 244 236 236 242 243 248 249 245 240 240 241 242 242 240
242 248 255 259 263 257 260 271 276 274 253 201 227 232 237 238 239 241 243 247 247 238 233 238 241 245 246 239 232 233 236 235 235
231 235 241 248 258 269 259 263 270 261 211 212 220 245 256 260 252 245 240 241 241 238 236 232 234 236 233 228 224 227 231 235 237
241 233 238 237 243 255 261 261 247 247 240 241 237 256 266 272 267 269 271 262 252 242 236 233 232 232 231 229 231 235 235 234 236
232 237 238 239 237 239 253 258 250 251 249 249 243 241 250 263 270 275 271 270 267 262 260 248 235 232 234 238 244 246 241 239 239
232 235 237 236 236 239 243 247 245 248 251 252 249 249 245 254 264 270 279 282 271 268 265 263 255 244 237 241 246 245 243 241 242
240 234 236 238 237 235 235 236 243 247 248 253 251 246 246 247 257 265 270 273 277 271 262 254 248 245 239 241 246 247 247 245 243
241 238 237 231 233 234 233 237 240 242 246 247 250 247 240 242 253 261 268 270 272 272 274 264 256 249 237 234 239 244 247 249 253
241 242 236 235 237 233 234 237 237 241 244 244 246 247 245 243 248 256 262 265 268 268 272 273 264 249 245 242 243 240 245 251 255
243 246 240 239 232 235 234 236 238 241 241 240 241 244 248 251 257 259 260 260 262 266 269 276 275 274 251 243 241 243 243 249 257
243 244 250 248 244 235 236 236 236 238 240 242 244 242 242 249 257 261 267 271 271 269 263 259 259 259 259 244 240 241 244 248 258
245 240 244 252 246 245 243 234 236 239 235 237 242 243 244 245 251 257 262 267 270 268 272 282 275 275 256 241 233 232 240 248 259
260 255 261 256 252 241 245 241 242 239 243 241 241 246 249 251 251 254 259 260 267 273 271 273 277 282 279 258 238 219 241 244 268
257 259 257 260 262 257 260 265 260 250 246 230 235 245 244 244 245 250 254 253 256 262 264 265 274 276 285 296 298 288 272 275 277
252 252 254 256 258 255 253 256 260 255 254 234 252 250 250 244 242 254 256 253 253 256 257 261 263 265 269 272 274 269 271 280 282
Height
5906 5905 5905 5905 5904 5903 5903 5902 5902 5901 5901 5901 5901 5902 5902 5903 5904 5906 5907 5907 5907 5907 5905 5907 5912 5918 5921 5923 5925 5927 5928 5930 5931
5903 5904 5903 5904 5903 5904 5902 5901 5901 5900 5900 5900 5901 5901 5901 5902 5902 5903 5904 5905 5906 5906 5907 5908 5911 5913 5916 5918 5920 5923 5925 5927 5928
5902 5901 5901 5901 5902 5902 5901 5900 5898 5898 5898 5899 5899 5900 5900 5900 5901 5901 5901 5902 5903 5904 5906 5908 5910 5912 5913 5915 5917 5919 5921 5923 5923
5898 5898 5898 5898 5898 5899 5899 5898 5898 5897 5896 5897 5897 5897 5898 5899 5899 5899 5899 5900 5900 5902 5903 5905 5907 5909 5910 5911 5913 5914 5916 5918 5919
5894 5894 5895 5895 5895 5895 5896 5896 5896 5896 5896 5894 5895 5896 5896 5897 5897 5897 5898 5898 5898 5899 5901 5902 5903 5905 5907 5908 5909 5910 5912 5913 5915
5889 5890 5891 5892 5892 5892 5891 5893 5893 5893 5893 5893 5892 5893 5894 5895 5895 5895 5896 5896 5897 5898 5898 5899 5900 5901 5902 5903 5905 5906 5907 5909 5910
5884 5885 5886 5887 5888 5888 5888 5888 5889 5889 5890 5890 5890 5891 5891 5892 5892 5893 5893 5894 5894 5895 5896 5896 5898 5899 5900 5900 5901 5902 5903 5904 5905
5878 5879 5880 5882 5883 5884 5885 5885 5886 5886 5887 5888 5889 5890 5890 5890 5890 5890 5890 5891 5892 5892 5892 5893 5893 5895 5897 5898 5898 5898 5899 5900 5901
5870 5872 5874 5876 5878 5879 5880 5882 5882 5883 5883 5884 5885 5886 5887 5887 5887 5887 5888 5888 5889 5889 5889 5890 5890 5891 5893 5894 5894 5895 5895 5896 5896
5861 5865 5867 5869 5870 5871 5873 5874 5876 5877 5878 5879 5880 5882 5883 5884 5884 5884 5884 5885 5885 5885 5886 5887 5888 5889 5890 5890 5891 5892 5892 5892 5893
5852 5854 5856 5858 5860 5862 5865 5866 5867 5869 5870 5872 5874 5875 5877 5878 5879 5881 5881 5881 5882 5882 5882 5882 5883 5884 5885 5885 5886 5887 5888 5888 5888
5839 5840 5843 5847 5849 5852 5855 5857 5859 5860 5862 5864 5866 5868 5870 5871 5872 5874 5875 5876 5876 5876 5876 5876 5875 5875 5877 5878 5879 5881 5881 5882 5882
5822 5825 5830 5834 5838 5841 5844 5846 5848 5850 5852 5855 5858 5861 5862 5864 5866 5867 5868 5869 5870 5870 5871 5872 5872 5871 5869 5868 5869 5872 5875 5876 5878
5808 5812 5814 5818 5822 5827 5830 5833 5836 5839 5841 5844 5846 5849 5853 5856 5858 5859 5859 5859 5860 5864 5865 5866 5867 5865 5865 5865 5864 5864 5866 5868 5868
5792 5794 5799 5802 5804 5811 5815 5820 5824 5827 5830 5831 5834 5838 5842 5845 5845 5845 5844 5847 5850 5854 5856 5856 5860 5861 5858 5857 5857 5859 5858 5858 5861
5776 5779 5782 5786 5791 5793 5800 5804 5809 5815 5817 5819 5821 5824 5828 5832 5833 5833 5835 5838 5843 5846 5831 5840 5844 5848 5846 5843 5848 5849 5850 5849 5851
5759 5765 5768 5770 5773 5778 5783 5788 5792 5797 5802 5804 5806 5810 5814 5818 5820 5820 5822 5826 5831 5833 5831 5829 5829 5832 5825 5796 5819 5831 5838 5840 5840
5744 5747 5748 5751 5754 5760 5766 5770 5775 5780 5786 5791 5793 5798 5802 5805 5809 5808 5809 5816 5816 5817 5818 5819 5818 5813 5810 5790 5792 5804 5825 5829 5829
5734 5736 5738 5739 5742 5746 5748 5751 5758 5764 5769 5772 5778 5781 5787 5792 5795 5795 5798 5804 5806 5806 5806 5808 5809 5806 5801 5798 5799 5810 5814 5818 5820
5722 5724 5726 5728 5729 5733 5738 5740 5742 5749 5752 5759 5765 5769 5773 5777 5779 5780 5782 5790 5793 5793 5795 5795 5797 5797 5798 5800 5806 5807 5809 5810 5808